| time (UTC) | temp C | wind direction | speed KPH | gust KPH | rain 1hr cm | rain 24hr cm | rain mn cm | humidity % | barometer mb |
| 20260504081838 | 11 | 123 | 0.0 | 0.0 | 0.00 | 0.00 | 0.00 | 89 | 1018.4 |
| 20260504081336 | 11 | 122 | 0.0 | 0.0 | 0.00 | 0.00 | 0.00 | 89 | 1018.3 |
| 20260504080830 | 11 | 122 | 0.0 | 0.0 | 0.00 | 0.00 | 0.00 | 89 | 1018.4 |
| 20260504080324 | 11 | 122 | 0.0 | 0.0 | 0.00 | 0.00 | 0.00 | 89 | 1018.3 |
| 20260504070235 | 11 | 122 | 0.0 | 0.0 | 0.00 | 0.00 | 0.00 | 87 | 1018.7 |
| 20260504060158 | 12 | 123 | 0.0 | 0.0 | 0.00 | 0.00 | 0.00 | 84 | 1019.4 |
| 20260504050559 | 13 | 122 | 0.0 | 0.0 | 0.00 | 0.00 | 0.00 | 82 | 1019.2 |
| 20260504045542 | 13 | 122 | 0.0 | 0.0 | 0.00 | 0.00 | 0.00 | 81 | 1019.1 |
| 20260504044538 | 13 | 122 | 0.0 | 0.0 | 0.00 | 0.00 | 0.00 | 80 | 1019.2 |
| 20260504044032 | 13 | 122 | 0.0 | 0.0 | 0.00 | 0.00 | 0.00 | 81 | 1019.2 |
| 20260504043523 | 13 | 122 | 0.0 | 0.0 | 0.00 | 0.00 | 0.00 | 81 | 1019.3 |
| 20260504043010 | 13 | 122 | 0.0 | 0.0 | 0.00 | 0.00 | 0.00 | 81 | 1019.3 |
| 20260504042004 | 13 | 122 | 0.0 | 0.0 | 0.00 | 0.00 | 0.00 | 81 | 1019.2 |
| 20260504041503 | 13 | 122 | 0.0 | 0.0 | 0.00 | 0.00 | 0.00 | 80 | 1019.1 |
| 20260504041002 | 13 | 122 | 0.0 | 0.0 | 0.00 | 0.00 | 0.00 | 80 | 1019.0 |
| 20260504040457 | 13 | 122 | 0.0 | 0.0 | 0.00 | 0.00 | 0.00 | 80 | 1018.9 |
| 20260504035951 | 13 | 122 | 0.0 | 0.0 | 0.00 | 0.00 | 0.00 | 79 | 1019.0 |
| 20260504035445 | 13 | 122 | 0.0 | 0.0 | 0.00 | 0.00 | 0.00 | 80 | 1019.0 |
| 20260504034935 | 13 | 122 | 0.0 | 0.0 | 0.00 | 0.00 | 0.00 | 79 | 1019.1 |
| 20260504034431 | 13 | 122 | 0.0 | 0.0 | 0.00 | 0.00 | 0.00 | 78 | 1019.0 |
| 20260504033932 | 13 | 122 | 0.0 | 0.0 | 0.00 | 0.00 | 0.00 | 79 | 1018.9 |
| 20260504032925 | 13 | 123 | 0.0 | 0.0 | 0.00 | 0.00 | 0.00 | 78 | 1019.0 |
| 20260504031904 | 14 | 123 | 0.0 | 0.0 | 0.00 | 0.00 | 0.00 | 76 | 1019.2 |
| 20260504031403 | 14 | 123 | 0.0 | 0.0 | 0.00 | 0.00 | 0.00 | 76 | 1019.2 |
| 20260504030401 | 15 | 122 | 0.0 | 0.0 | 0.00 | 0.00 | 0.00 | 74 | 1019.3 |
| 20260504025353 | 15 | 122 | 0.0 | 0.0 | 0.00 | 0.00 | 0.00 | 74 | 1019.2 |
| 20260504024854 | 15 | 123 | 0.0 | 0.0 | 0.00 | 0.00 | 0.00 | 73 | 1019.2 |
| 20260504024353 | 15 | 123 | 0.0 | 0.0 | 0.00 | 0.00 | 0.00 | 71 | 1019.1 |
| 20260504023852 | 15 | 123 | 0.0 | 0.0 | 0.00 | 0.00 | 0.00 | 71 | 1019.1 |
| 20260504023349 | 15 | 122 | 0.0 | 0.0 | 0.00 | 0.00 | 0.00 | 71 | 1019.0 |
| 20260504022332 | 15 | 122 | 0.0 | 0.0 | 0.00 | 0.00 | 0.00 | 72 | 1018.9 |
| 20260504021830 | 15 | 122 | 0.0 | 0.0 | 0.00 | 0.00 | 0.00 | 69 | 1018.9 |
| 20260504021330 | 15 | 122 | 0.0 | 0.0 | 0.00 | 0.00 | 0.00 | 69 | 1018.9 |
| 20260504020830 | 16 | 122 | 0.0 | 0.0 | 0.00 | 0.00 | 0.00 | 70 | 1018.7 |
| 20260504020330 | 16 | 122 | 0.0 | 0.0 | 0.00 | 0.00 | 0.00 | 69 | 1018.6 |
| 20260504015816 | 16 | 122 | 0.0 | 0.0 | 0.00 | 0.00 | 0.00 | 68 | 1018.6 |
| 20260504015305 | 16 | 122 | 0.0 | 0.0 | 0.00 | 0.00 | 0.00 | 66 | 1018.6 |
| 20260504014804 | 16 | 122 | 0.0 | 0.0 | 0.00 | 0.00 | 0.00 | 66 | 1018.6 |
| 20260504013757 | 16 | 122 | 0.0 | 0.0 | 0.00 | 0.00 | 0.00 | 66 | 1018.4 |
| 20260504013257 | 16 | 122 | 0.0 | 0.0 | 0.00 | 0.00 | 0.00 | 63 | 1018.4 |
| 20260504012747 | 16 | 122 | 0.0 | 0.0 | 0.00 | 0.00 | 0.00 | 63 | 1018.4 |
| 20260504012242 | 17 | 122 | 0.0 | 0.0 | 0.00 | 0.00 | 0.00 | 65 | 1018.3 |
| 20260504011231 | 17 | 122 | 0.0 | 0.0 | 0.00 | 0.00 | 0.00 | 62 | 1018.2 |
| 20260504010230 | 17 | 122 | 0.0 | 0.0 | 0.00 | 0.00 | 0.00 | 61 | 1018.0 |
| 20260504005724 | 18 | 122 | 0.0 | 0.0 | 0.00 | 0.00 | 0.00 | 59 | 1017.9 |
| 20260504005217 | 18 | 122 | 0.0 | 0.0 | 0.00 | 0.00 | 0.00 | 57 | 1017.9 |
| 20260504004204 | 18 | 122 | 0.0 | 0.0 | 0.00 | 0.00 | 0.00 | 57 | 1017.9 |
| 20260504003657 | 19 | 122 | 0.0 | 0.0 | 0.00 | 0.00 | 0.00 | 56 | 1018.0 |
| 20260504002637 | 20 | 122 | 0.0 | 0.0 | 0.00 | 0.00 | 0.00 | 52 | 1017.7 |
| 20260504002132 | 20 | 122 | 0.0 | 0.0 | 0.00 | 0.00 | 0.00 | 52 | 1017.7 |
| 20260504001633 | 20 | 122 | 0.0 | 0.0 | 0.00 | 0.00 | 0.00 | 51 | 1017.7 |
| 20260504001130 | 20 | 122 | 0.0 | 0.0 | 0.00 | 0.00 | 0.00 | 49 | 1017.7 |
| 20260503235625 | 21 | 122 | 0.0 | 0.0 | 0.00 | 0.00 | 0.00 | 46 | 1017.7 |
| 20260503234102 | 22 | 122 | 0.0 | 0.0 | 0.00 | 0.00 | 0.00 | 45 | 1017.7 |
| 20260503233601 | 22 | 122 | 0.0 | 1.6 | 0.00 | 0.00 | 0.00 | 45 | 1017.7 |
| 20260503233046 | 22 | 123 | 0.0 | 1.6 | 0.00 | 0.00 | 0.00 | 44 | 1017.7 |
| 20260503232541 | 22 | 122 | 0.0 | 0.0 | 0.00 | 0.00 | 0.00 | 44 | 1017.7 |
| 20260503232033 | 22 | 122 | 0.0 | 1.6 | 0.00 | 0.00 | 0.00 | 44 | 1017.7 |
| 20260503231526 | 22 | 122 | 0.0 | 1.6 | 0.00 | 0.00 | 0.00 | 44 | 1017.8 |
| 20260503231016 | 23 | 111 | 0.0 | 1.6 | 0.00 | 0.00 | 0.00 | 45 | 1017.8 |
| 20260503230505 | 23 | 110 | 0.0 | 4.8 | 0.00 | 0.00 | 0.00 | 45 | 1017.7 |
| 20260503225946 | 23 | 110 | 0.0 | 4.8 | 0.00 | 0.00 | 0.00 | 43 | 1017.7 |
| 20260503225438 | 23 | 101 | 0.0 | 1.6 | 0.00 | 0.00 | 0.00 | 45 | 1017.7 |
| 20260503224931 | 23 | 102 | 0.0 | 1.6 | 0.00 | 0.00 | 0.00 | 43 | 1017.7 |
| 20260503224427 | 23 | 102 | 0.0 | 1.6 | 0.00 | 0.00 | 0.00 | 44 | 1017.6 |
| 20260503223923 | 23 | 247 | 0.0 | 1.6 | 0.00 | 0.00 | 0.00 | 41 | 1017.6 |
| 20260503223411 | 23 | 158 | 0.0 | 1.6 | 0.00 | 0.00 | 0.00 | 44 | 1017.6 |
| 20260503222904 | 23 | 156 | 0.0 | 1.6 | 0.00 | 0.00 | 0.00 | 41 | 1017.6 |
| 20260503222405 | 23 | 221 | 0.0 | 1.6 | 0.00 | 0.00 | 0.00 | 42 | 1017.6 |
| 20260503221903 | 24 | 153 | 0.0 | 1.6 | 0.00 | 0.00 | 0.00 | 40 | 1017.6 |
| 20260503221403 | 24 | 181 | 0.0 | 1.6 | 0.00 | 0.00 | 0.00 | 40 | 1017.6 |
| 20260503220902 | 24 | 215 | 0.0 | 1.6 | 0.00 | 0.00 | 0.00 | 40 | 1017.7 |
| 20260503220403 | 24 | 93 | 0.0 | 1.6 | 0.00 | 0.00 | 0.00 | 40 | 1017.8 |
| 20260503215902 | 24 | 250 | 0.0 | 1.6 | 0.00 | 0.00 | 0.00 | 39 | 1017.8 |
| 20260503215403 | 24 | 317 | 0.0 | 1.6 | 0.00 | 0.00 | 0.00 | 41 | 1017.8 |
| 20260503214903 | 25 | 307 | 0.0 | 3.2 | 0.00 | 0.00 | 0.00 | 40 | 1017.9 |
| 20260503214403 | 25 | 79 | 0.0 | 6.4 | 0.00 | 0.00 | 0.00 | 38 | 1017.9 |
| 20260503213402 | 25 | 112 | 0.0 | 6.4 | 0.00 | 0.00 | 0.00 | 38 | 1018.1 |
| 20260503211854 | 26 | 202 | 0.0 | 3.2 | 0.00 | 0.00 | 0.00 | 37 | 1018.3 |
| 20260503211352 | 26 | 274 | 0.0 | 1.6 | 0.00 | 0.00 | 0.00 | 36 | 1018.3 |
| 20260503210844 | 26 | 259 | 0.0 | 1.6 | 0.00 | 0.00 | 0.00 | 39 | 1018.3 |
| 20260503210331 | 26 | 216 | 0.0 | 4.8 | 0.00 | 0.00 | 0.00 | 35 | 1018.4 |
| 20260503205831 | 26 | 217 | 0.0 | 4.8 | 0.00 | 0.00 | 0.00 | 36 | 1018.4 |
| 20260503205329 | 26 | 342 | 0.0 | 3.2 | 0.00 | 0.00 | 0.00 | 36 | 1018.5 |
| 20260503204805 | 26 | 266 | 0.0 | 4.8 | 0.00 | 0.00 | 0.00 | 35 | 1018.6 |
| 20260503204305 | 26 | 292 | 1.6 | 4.8 | 0.00 | 0.00 | 0.00 | 35 | 1018.6 |
| 20260503203756 | 26 | 295 | 1.6 | 9.7 | 0.00 | 0.00 | 0.00 | 37 | 1018.7 |
| 20260503203242 | 26 | 131 | 1.6 | 9.7 | 0.00 | 0.00 | 0.00 | 38 | 1018.7 |
| 20260503202739 | 26 | 22 | 1.6 | 6.4 | 0.00 | 0.00 | 0.00 | 35 | 1018.6 |
| 20260503202240 | 27 | 286 | 0.0 | 6.4 | 0.00 | 0.00 | 0.00 | 33 | 1018.8 |
| 20260503201736 | 27 | 137 | 0.0 | 1.6 | 0.00 | 0.00 | 0.00 | 36 | 1018.9 |
| 20260503201233 | 27 | 274 | 0.0 | 3.2 | 0.00 | 0.00 | 0.00 | 34 | 1018.8 |
| 20260503200731 | 26 | 139 | 0.0 | 3.2 | 0.00 | 0.00 | 0.00 | 35 | 1019.0 |
| 20260503200231 | 26 | 318 | 0.0 | 6.4 | 0.00 | 0.00 | 0.00 | 36 | 1019.0 |
| 20260503195731 | 26 | 359 | 1.6 | 6.4 | 0.00 | 0.00 | 0.00 | 36 | 1019.1 |
| 20260503195232 | 26 | 229 | 0.0 | 4.8 | 0.00 | 0.00 | 0.00 | 36 | 1019.2 |
| 20260503194724 | 26 | 98 | 1.6 | 4.8 | 0.00 | 0.00 | 0.00 | 36 | 1019.4 |
| 20260503194225 | 26 | 263 | 1.6 | 4.8 | 0.00 | 0.00 | 0.00 | 34 | 1019.5 |
| 20260503193722 | 26 | 0 | 1.6 | 4.8 | 0.00 | 0.00 | 0.00 | 36 | 1019.6 |
| 20260503193209 | 26 | 129 | 1.6 | 6.4 | 0.00 | 0.00 | 0.00 | 35 | 1019.7 |
| 20260503192710 | 26 | 248 | 1.6 | 6.4 | 0.00 | 0.00 | 0.00 | 36 | 1019.9 |
| 20260503192205 | 26 | 266 | 1.6 | 8.0 | 0.00 | 0.00 | 0.00 | 34 | 1020.0 |
| 20260503191708 | 26 | 134 | 1.6 | 8.0 | 0.00 | 0.00 | 0.00 | 34 | 1019.9 |
| 20260503191207 | 26 | 287 | 1.6 | 8.0 | 0.00 | 0.00 | 0.00 | 36 | 1020.2 |
| 20260503190708 | 26 | 81 | 1.6 | 8.0 | 0.00 | 0.00 | 0.00 | 35 | 1020.2 |
| 20260503190205 | 26 | 136 | 1.6 | 8.0 | 0.00 | 0.00 | 0.00 | 38 | 1020.4 |
| 20260503185702 | 25 | 299 | 1.6 | 8.0 | 0.00 | 0.00 | 0.00 | 36 | 1020.5 |
| 20260503185202 | 26 | 83 | 1.6 | 4.8 | 0.00 | 0.00 | 0.00 | 36 | 1020.5 |
| 20260503184701 | 26 | 150 | 1.6 | 4.8 | 0.00 | 0.00 | 0.00 | 36 | 1020.6 |
| 20260503184203 | 26 | 77 | 0.0 | 3.2 | 0.00 | 0.00 | 0.00 | 36 | 1020.7 |
| 20260503183202 | 25 | 85 | 1.6 | 6.4 | 0.00 | 0.00 | 0.00 | 36 | 1020.8 |
| 20260503182708 | 26 | 94 | 1.6 | 6.4 | 0.00 | 0.00 | 0.00 | 35 | 1020.9 |
| 20260503182202 | 26 | 285 | 0.0 | 6.4 | 0.00 | 0.00 | 0.00 | 36 | 1020.8 |
| 20260503181701 | 26 | 101 | 0.0 | 6.4 | 0.00 | 0.00 | 0.00 | 34 | 1020.8 |
| 20260503181204 | 26 | 143 | 1.6 | 6.4 | 0.00 | 0.00 | 0.00 | 37 | 1021.0 |
| 20260503180709 | 25 | 322 | 1.6 | 6.4 | 0.00 | 0.00 | 0.00 | 39 | 1020.9 |
| 20260503180202 | 25 | 287 | 1.6 | 8.0 | 0.00 | 0.00 | 0.00 | 36 | 1020.9 |
| 20260503175202 | 25 | 340 | 1.6 | 6.4 | 0.00 | 0.00 | 0.00 | 36 | 1021.0 |
| 20260503174703 | 25 | 205 | 0.0 | 4.8 | 0.00 | 0.00 | 0.00 | 39 | 1020.9 |
| 20260503174203 | 25 | 125 | 1.6 | 8.0 | 0.00 | 0.00 | 0.00 | 38 | 1021.0 |
| 20260503173704 | 25 | 349 | 1.6 | 8.0 | 0.00 | 0.00 | 0.00 | 37 | 1020.0 |
| 20260503173203 | 25 | 141 | 1.6 | 3.2 | 0.00 | 0.00 | 0.00 | 36 | 1021.0 |
| 20260503172702 | 24 | 292 | 1.6 | 6.4 | 0.00 | 0.00 | 0.00 | 37 | 1021.2 |
| 20260503172158 | 25 | 275 | 1.6 | 9.7 | 0.00 | 0.00 | 0.00 | 38 | 1021.3 |
| 20260503171151 | 24 | 252 | 1.6 | 8.0 | 0.00 | 0.00 | 0.00 | 37 | 1021.4 |
| 20260503170639 | 24 | 4 | 1.6 | 9.7 | 0.00 | 0.00 | 0.00 | 39 | 1021.4 |
| 20260503170137 | 24 | 238 | 1.6 | 9.7 | 0.00 | 0.00 | 0.00 | 38 | 1021.6 |
| 20260503160130 | 23 | 281 | 0.0 | 3.2 | 0.00 | 0.00 | 0.00 | 43 | 1022.2 |
| 20260503150105 | 22 | 101 | 0.0 | 4.8 | 0.00 | 0.00 | 0.00 | 54 | 1022.7 |
| 20260503131105 | 14 | 109 | 0.0 | 0.0 | 0.00 | 0.00 | 0.00 | 79 | 1021.4 |
| 20260503130600 | 13 | 109 | 0.0 | 0.0 | 0.00 | 0.00 | 0.00 | 81 | 1021.3 |
| 20260503110500 | 7 | 109 | 0.0 | 0.0 | 0.00 | 0.28 | 0.00 | 94 | 1020.5 |